Theta_e
322 322 322 322 323 324 324 323 323 324 324 323 322 322 321 320 317 306 300 311 321 329 324 313 312 312 310 309 309 306 294 292 296 298 301 304 304 307 311 311 314 316 315 319 323
320 322 321 322 323 324 324 324 324 324 324 323 322 322 320 319 308 302 309 318 321 325 313 310 306 310 303 304 307 300 291 291 297 301 301 303 304 305 309 310 312 316 321 321 324
320 321 322 322 323 323 323 324 324 324 324 322 322 322 320 316 298 294 318 320 320 321 314 314 312 308 301 303 305 301 293 295 299 301 303 303 303 305 305 306 310 312 316 319 321
319 320 320 322 321 323 323 323 323 324 323 322 322 321 319 310 285 306 323 323 327 314 312 311 308 302 297 297 302 298 301 299 302 303 303 301 305 303 303 306 308 311 318 318 318
317 318 319 320 321 322 322 322 323 323 323 322 321 320 308 297 297 309 321 320 318 312 306 306 303 301 296 298 300 299 300 301 303 303 302 303 301 302 304 307 311 316 317 318 319
315 315 316 317 319 320 320 321 321 322 322 322 320 318 301 290 303 309 313 316 314 311 305 309 305 305 300 298 296 299 299 300 302 302 302 301 300 302 304 305 309 315 314 317 318
315 315 315 316 317 319 319 320 318 319 322 321 321 308 299 294 307 307 308 309 314 312 306 312 310 305 303 298 302 300 296 297 298 300 300 301 297 298 304 304 304 309 315 316 318
313 314 315 315 316 317 318 319 319 320 318 321 320 307 296 306 307 307 306 306 311 313 312 312 310 307 304 303 300 296 295 288 293 298 300 299 289 296 302 303 303 304 304 306 315
312 312 314 315 315 316 317 317 317 318 318 320 309 301 294 310 303 306 306 303 310 309 309 311 309 303 302 296 292 292 284 288 291 298 297 296 291 297 300 300 301 302 303 303 305
312 312 312 314 315 315 315 316 316 315 315 315 310 298 300 296 302 302 304 307 305 304 303 302 301 296 294 291 283 287 288 288 288 292 293 291 292 298 299 297 297 299 299 300 300
311 312 312 313 315 315 313 308 301 299 306 300 300 298 297 300 303 299 303 303 303 299 289 296 293 289 292 295 291 291 290 287 289 292 290 288 289 293 296 295 296 298 299 300 299
310 311 312 312 312 314 310 301 300 303 297 304 303 301 302 301 294 297 303 297 296 290 293 292 288 292 295 296 291 290 287 286 289 292 291 288 287 291 294 294 294 295 296 297 300
310 310 311 312 312 309 304 303 307 308 293 298 302 300 301 301 294 294 299 296 292 289 290 284 288 295 294 292 291 288 286 285 285 290 289 286 284 287 291 293 294 295 297 298 299
310 310 310 311 305 303 299 306 308 306 287 289 296 299 301 301 294 299 300 297 292 287 289 288 290 291 290 290 292 287 291 289 288 287 281 286 277 283 286 288 290 292 294 297 296
309 310 310 310 302 299 300 306 307 302 274 290 295 304 300 296 295 294 299 295 289 289 289 283 287 288 287 289 293 287 293 291 290 286 284 283 281 281 285 286 289 293 294 293 292
309 309 309 305 302 302 304 306 302 282 274 284 294 293 293 295 294 295 295 297 294 290 288 284 290 289 289 291 293 292 288 287 285 284 275 281 280 278 282 285 287 289 290 291 292
308 309 307 304 297 303 306 299 282 275 286 283 288 292 290 290 291 292 289 289 286 278 282 285 284 288 291 288 290 289 285 275 276 277 272 280 279 282 285 289 289 290 291 290 291
306 308 306 303 302 304 300 287 275 278 282 286 289 290 286 289 290 291 288 285 288 283 281 279 274 286 289 287 287 288 284 276 270 273 275 281 278 281 288 290 291 292 291 291 290
305 303 301 302 303 302 291 279 278 278 284 286 287 284 285 288 288 289 288 286 288 286 282 278 279 287 288 290 291 286 283 285 277 269 272 276 279 283 286 287 288 288 290 291 291
293 291 298 302 303 297 285 281 282 284 287 287 280 284 281 285 285 286 285 289 287 290 286 283 278 284 288 290 289 289 290 280 276 266 266 273 275 279 283 285 286 287 288 290 291
293 286 295 303 301 289 280 281 282 286 286 286 285 279 282 282 285 285 285 287 290 288 290 284 282 279 286 284 283 285 284 283 282 277 272 269 274 280 284 285 286 287 288 290 291
290 280 297 301 285 285 281 282 286 284 287 285 286 285 282 285 283 285 284 286 292 291 285 287 283 278 281 285 289 288 285 286 279 275 277 275 277 283 284 284 286 286 287 289 291
285 285 296 297 280 280 279 282 284 284 284 284 280 284 286 284 281 286 286 289 290 290 286 288 283 278 279 282 283 283 285 287 285 281 277 274 278 285 283 285 286 286 286 289 291
285 275 285 289 288 277 276 278 278 283 284 285 284 284 283 281 285 285 285 287 289 291 294 292 284 282 277 280 282 281 285 286 284 279 280 279 281 285 283 285 285 285 286 287 290
285 277 281 280 282 281 280 278 277 274 282 283 281 284 281 278 281 283 285 287 289 293 293 290 282 284 284 285 282 283 284 285 283 284 280 282 282 286 288 287 286 286 287 288 288
283 281 284 281 284 281 281 275 278 277 279 278 278 283 284 281 282 279 283 285 284 288 289 290 282 283 281 284 284 281 283 286 286 286 285 285 284 291 292 290 286 287 287 287 288
289 289 286 283 283 280 278 278 279 281 280 283 282 281 280 283 284 284 286 286 287 287 286 286 284 282 278 282 282 278 283 284 285 287 286 282 287 292 291 290 287 287 287 289 290
Wind_Speed
10 9 8 9 12 13 12 10 9 7 6 6 6 5 5 8 8 1 6 4 3 8 8 4 3 5 3 3 3 3 5 4 6 8 6 5 5 2 0 5 2 4 2 2 8
10 9 11 11 10 12 14 12 9 8 7 6 4 3 5 8 3 4 6 7 5 7 4 4 2 3 3 2 2 4 4 11 6 5 4 4 4 7 4 3 3 2 0 4 9
13 12 11 10 12 10 14 13 11 9 8 6 5 3 2 5 4 2 4 3 3 3 2 2 0 2 2 1 2 3 6 5 5 4 1 3 1 2 5 3 7 9 5 7 7
12 14 12 10 9 10 9 13 13 11 9 7 6 4 1 1 5 1 5 6 1 6 1 0 1 4 4 4 2 2 3 4 2 2 2 3 1 2 4 4 1 3 4 8 11
10 10 11 11 10 11 9 9 12 13 11 9 7 6 2 2 8 3 6 5 4 5 4 3 2 4 5 4 4 2 1 3 2 1 1 1 3 3 5 6 4 1 6 12 11
13 11 11 10 11 12 10 9 6 12 14 12 10 8 4 3 1 5 3 1 3 3 4 3 4 3 4 3 4 3 2 1 2 0 2 2 2 4 7 5 4 3 7 7 11
13 12 11 10 12 12 10 10 7 4 11 16 15 5 4 12 5 3 4 1 1 2 4 4 1 2 3 3 3 4 3 3 3 3 4 4 6 7 9 4 6 6 5 6 8
15 12 11 11 11 10 10 8 7 5 6 14 16 4 6 3 3 4 0 1 1 2 2 2 2 3 3 3 4 4 5 3 3 4 4 6 7 8 5 6 9 9 6 6 7
15 15 13 12 11 12 11 9 7 5 5 9 7 6 7 3 3 5 4 4 4 2 1 0 2 3 3 6 2 4 3 6 4 8 3 6 6 6 1 6 9 9 8 9 11
16 16 15 14 13 14 12 8 5 4 3 3 3 4 3 6 3 4 2 5 3 5 4 3 3 4 3 4 6 6 5 4 4 1 2 3 10 11 7 5 9 9 9 8 10
16 17 16 14 13 12 9 4 2 2 7 5 8 1 2 0 3 3 5 5 4 5 5 2 4 8 7 5 2 3 2 2 2 1 2 7 8 18 12 5 9 12 13 11 14
18 17 15 16 16 14 7 6 4 2 5 8 9 4 3 2 4 3 7 6 5 5 6 3 10 6 7 4 5 4 2 2 5 4 0 8 11 13 18 10 11 15 13 16 15
18 18 18 15 17 10 10 14 3 4 2 5 8 11 6 1 2 9 8 5 5 7 8 7 5 9 8 5 6 3 5 3 3 6 2 7 14 9 11 10 9 10 13 15 17
19 19 19 18 10 6 11 10 3 5 5 7 11 8 6 8 4 5 6 6 3 7 7 5 5 8 5 7 7 9 8 6 1 5 5 4 12 5 6 8 6 11 13 14 10
20 20 20 21 4 10 5 10 7 2 13 11 10 10 12 11 10 6 4 3 9 9 8 7 9 9 7 6 9 4 6 7 4 2 4 3 5 2 2 5 9 14 12 6 8
20 21 20 12 7 5 8 10 8 10 9 8 10 12 11 13 8 5 4 4 4 5 4 3 1 4 7 5 13 9 7 6 4 2 5 7 7 4 6 7 3 4 6 6 5
15 20 18 8 15 9 10 8 10 13 8 8 11 15 24 16 16 9 10 9 8 6 7 1 3 3 4 7 3 4 8 2 1 4 9 2 5 11 4 5 8 8 8 8 7
13 18 17 9 8 15 8 11 17 12 10 5 11 15 20 14 16 13 14 12 12 3 5 9 5 11 7 8 10 13 9 8 9 6 3 2 12 7 7 9 9 8 7 7 7
8 9 8 10 13 12 11 14 11 7 12 11 10 15 14 15 9 14 17 15 14 12 9 7 6 2 4 6 13 7 11 6 6 3 2 6 10 10 9 11 6 6 7 8 6
3 5 14 14 15 11 10 15 5 4 12 8 18 10 17 17 12 17 17 17 14 18 1 7 2 1 4 4 2 7 10 4 2 4 4 6 7 12 8 8 5 3 5 6 4
3 0 7 18 12 10 13 7 2 1 3 13 16 8 8 11 19 14 13 7 19 14 14 4 3 3 6 10 13 6 6 4 6 6 6 3 9 9 12 6 4 6 2 4 6
3 3 5 14 10 5 15 11 9 4 1 5 3 2 9 18 15 13 18 15 18 15 18 12 4 7 11 5 9 18 16 14 8 8 4 2 12 4 5 5 5 3 1 3 5
3 2 3 8 13 11 4 4 7 7 5 7 5 6 5 4 12 15 11 8 11 17 15 13 8 6 3 4 2 10 11 18 10 3 12 7 14 2 7 9 7 5 3 3 5
3 2 3 8 7 7 8 8 7 3 6 5 5 6 5 6 1 12 10 3 9 12 13 16 7 17 20 16 10 11 16 18 18 10 17 11 22 20 5 6 4 2 1 2 6
3 6 4 5 12 18 14 16 13 9 4 8 2 11 8 5 3 4 1 3 4 9 12 7 10 21 25 20 6 10 19 23 21 23 14 21 22 30 19 13 8 5 4 5 7
5 5 1 2 4 10 16 14 26 8 16 12 9 17 19 15 18 11 13 7 6 7 16 11 5 6 17 19 15 15 13 20 23 25 24 24 20 28 20 10 8 12 9 8 9
4 1 3 4 11 12 16 18 19 14 2 15 11 9 5 13 4 1 4 4 8 10 8 5 12 12 17 20 19 18 22 21 22 23 23 24 30 31 28 15 10 14 13 16 13
Wind_Direction
252 247 251 254 238 238 235 239 241 248 249 256 271 284 313 328 322 263 224 209 338 343 336 299 59 347 38 70 74 136 80 184 207 159 227 162 178 183 335 124 225 190 174 97 121
252 250 253 259 250 237 233 223 229 229 235 234 251 260 319 336 308 250 263 302 306 343 10 12 17 3 57 69 28 96 138 206 204 192 209 185 173 175 149 149 232 245 239 102 138
248 251 240 242 267 244 232 221 210 221 221 234 242 245 324 329 308 276 322 343 236 224 330 331 339 83 108 106 160 154 195 193 220 220 167 152 179 160 140 225 216 206 177 152 164
263 250 241 232 247 251 232 234 210 203 211 211 214 209 341 346 256 40 3 346 223 157 104 331 11 111 142 175 161 157 222 172 163 164 142 163 142 175 213 228 10 230 163 161 180
242 259 254 237 238 240 225 232 222 202 198 197 188 172 109 67 247 338 351 22 70 120 150 153 156 135 176 166 118 159 217 185 309 83 80 171 212 199 246 246 304 216 171 185 193
236 225 244 248 229 229 225 201 220 227 191 188 181 141 108 218 199 12 355 25 83 111 139 153 194 207 129 164 158 177 113 351 346 301 284 225 198 156 258 181 202 199 207 197 205
258 224 219 250 246 218 218 210 199 205 226 187 174 128 146 231 149 346 12 22 80 124 139 182 159 116 117 138 174 122 107 3 245 221 248 158 285 217 222 148 201 223 218 210 218
246 243 225 216 237 231 216 199 190 207 219 210 165 108 233 234 231 277 215 354 75 120 98 161 167 125 119 96 28 127 67 96 239 159 265 133 262 249 242 175 219 222 235 237 224
253 237 227 223 219 231 223 203 188 187 251 224 141 134 248 84 184 218 154 156 120 93 181 35 136 116 84 115 35 13 188 198 305 195 143 188 264 252 250 196 235 234 246 242 252
240 247 230 221 221 212 218 201 209 151 177 116 109 102 210 222 185 147 147 147 130 119 64 83 92 134 76 115 200 193 211 226 212 124 175 219 259 263 246 182 237 261 243 240 256
231 230 225 218 222 216 193 154 132 217 201 197 145 251 93 86 111 69 142 100 92 86 142 233 176 201 178 187 119 129 114 272 277 277 269 235 244 267 264 206 234 245 257 251 235
227 226 216 209 218 216 171 200 184 176 193 215 164 155 96 232 92 179 140 125 135 154 128 113 227 167 165 165 127 119 110 266 286 309 163 293 264 268 274 241 216 230 238 242 250
216 220 217 198 212 207 207 205 67 61 259 186 175 190 153 75 217 200 146 132 140 144 178 161 208 164 151 157 147 163 177 167 263 331 302 320 274 216 262 274 255 245 239 242 241
220 213 213 198 202 184 211 189 230 52 234 203 185 196 135 119 262 169 199 138 152 152 147 222 206 159 148 183 149 223 176 174 238 7 254 28 288 255 220 243 242 258 238 250 246
220 209 208 198 135 187 172 146 135 96 223 177 161 147 151 180 141 209 203 66 157 166 142 226 170 160 192 180 165 207 157 181 177 187 303 188 266 248 95 257 250 245 252 230 237
219 209 205 199 183 169 141 139 132 220 219 171 138 164 152 187 170 118 155 50 138 114 52 140 176 156 173 140 169 149 94 67 56 117 274 195 186 215 190 207 256 274 246 240 240
236 213 197 174 201 144 144 154 203 219 147 184 165 172 182 181 177 155 168 178 163 111 208 64 213 187 151 98 71 149 123 49 273 209 237 340 215 256 237 248 222 248 271 257 282
258 218 204 190 155 155 174 202 216 179 178 255 159 181 190 158 189 178 160 185 230 164 128 170 272 168 184 168 172 183 163 162 200 197 259 26 237 255 223 257 253 254 259 276 278
302 215 191 188 162 165 189 216 212 173 149 167 159 181 198 186 138 181 196 201 190 187 188 160 256 123 195 159 149 170 209 175 104 30 49 228 285 280 256 265 274 237 247 264 263
97 349 213 165 161 173 216 234 218 191 163 147 185 177 185 185 175 184 183 204 209 198 69 210 129 264 183 121 245 169 155 139 28 147 250 267 278 239 310 300 278 334 259 272 227
96 126 278 152 161 193 219 213 150 323 134 179 205 165 179 171 191 191 189 218 202 187 191 146 131 292 126 214 170 153 194 165 131 169 176 253 257 211 228 264 293 297 220 258 197
119 210 187 154 181 173 209 182 133 180 23 122 115 142 176 190 188 193 199 199 201 170 192 196 181 187 205 224 213 201 200 178 180 208 241 141 258 180 217 248 217 259 134 235 211
161 183 247 193 192 193 140 159 146 170 183 139 151 192 175 190 192 193 195 204 175 183 181 170 218 214 238 321 219 210 214 207 212 76 204 185 258 210 236 263 262 272 149 196 206
138 231 194 207 216 144 151 182 165 195 178 145 151 123 113 180 16 205 190 150 171 193 200 169 210 212 226 226 140 200 199 213 209 226 232 221 258 251 249 233 274 218 349 187 213
192 226 197 180 195 192 162 164 172 163 193 152 77 199 180 160 189 188 130 187 224 188 196 214 227 215 229 236 198 201 199 212 212 221 216 237 237 256 242 239 244 258 241 209 224
191 162 214 211 290 163 187 199 184 165 153 194 152 188 206 207 197 194 191 171 193 189 200 204 209 197 233 243 238 243 212 209 214 224 228 242 247 254 254 245 202 227 224 221 233
181 214 101 224 173 187 205 189 197 151 346 180 169 134 154 218 185 47 138 146 156 169 190 224 234 216 232 223 231 238 227 214 216 220 218 227 237 252 259 242 235 227 204 215 222